| time (UTC) | temp F | wind direction | speed MPH | gust MPH | rain 1hr in | rain 24hr in | rain mn in | humidity % | barometer mb |
| 20260906183041 | 83 | 124 | 2.0 | 9.0 | 0.00 | 0.00 | 0.00 | 59 | 1019.0 |
| 20260906181539 | 82 | 150 | 2.0 | 8.0 | 0.00 | 0.00 | 0.00 | 62 | 1019.2 |
| 20260906180038 | 80 | 179 | 2.0 | 4.0 | 0.00 | 0.00 | 0.00 | 65 | 1019.3 |
| 20260906174534 | 79 | 317 | 1.0 | 4.0 | 0.00 | 0.00 | 0.00 | 67 | 1019.5 |
| 20260906173023 | 78 | 250 | 1.0 | 6.0 | 0.00 | 0.00 | 0.00 | 68 | 1019.7 |
| 20260906171518 | 76 | 244 | 2.0 | 7.0 | 0.00 | 0.00 | 0.00 | 69 | 1019.9 |
| 20260906170017 | 76 | 247 | 2.0 | 6.0 | 0.00 | 0.00 | 0.00 | 68 | 1020.1 |
| 20260906164528 | 76 | 260 | 2.0 | 5.0 | 0.00 | 0.00 | 0.00 | 68 | 1020.2 |
| 20260906163019 | 76 | 238 | 3.0 | 7.0 | 0.00 | 0.00 | 0.00 | 69 | 1020.5 |
| 20260906161507 | 75 | 257 | 3.0 | 5.0 | 0.00 | 0.00 | 0.00 | 69 | 1020.5 |
| 20260906160004 | 75 | 288 | 3.0 | 8.0 | 0.00 | 0.00 | 0.00 | 68 | 1020.4 |
| 20260906154604 | 75 | 250 | 2.0 | 5.0 | 0.00 | 0.00 | 0.00 | 69 | 1020.2 |
| 20260906153100 | 75 | 194 | 1.0 | 6.0 | 0.00 | 0.00 | 0.00 | 69 | 1020.4 |
| 20260906151555 | 74 | 148 | 0.0 | 5.0 | 0.00 | 0.00 | 0.00 | 72 | 1020.4 |
| 20260906150100 | 73 | 142 | 3.0 | 7.0 | 0.00 | 0.00 | 0.00 | 73 | 1020.3 |
| 20260906144600 | 69 | 143 | 2.0 | 6.0 | 0.00 | 0.00 | 0.00 | 80 | 1020.5 |
| 20260906143044 | 67 | 86 | 0.0 | 0.0 | 0.00 | 0.00 | 0.00 | 86 | 1020.5 |
| 20260906141545 | 64 | 86 | 0.0 | 0.0 | 0.00 | 0.00 | 0.00 | 88 | 1020.6 |
| 20260906140039 | 62 | 86 | 0.0 | 3.0 | 0.00 | 0.00 | 0.00 | 91 | 1020.6 |
| 20260906134531 | 61 | 86 | 0.0 | 3.0 | 0.00 | 0.00 | 0.00 | 94 | 1020.7 |
| 20260906133027 | 59 | 101 | 0.0 | 3.0 | 0.00 | 0.00 | 0.00 | 96 | 1020.9 |
| 20260906131527 | 58 | 92 | 0.0 | 3.0 | 0.00 | 0.00 | 0.00 | 98 | 1020.6 |
| 20260906130035 | 57 | 71 | 1.0 | 3.0 | 0.00 | 0.00 | 0.00 | 98 | 1020.7 |
| 20260906124525 | 56 | 103 | 1.0 | 4.0 | 0.00 | 0.00 | 0.00 | 99 | 1020.7 |
| 20260906123017 | 55 | 129 | 0.0 | 3.0 | 0.00 | 0.00 | 0.00 | 98 | 1020.5 |
| 20260906121514 | 54 | 129 | 2.0 | 4.0 | 0.00 | 0.00 | 0.00 | 98 | 1020.4 |
| 20260906120016 | 53 | 111 | 2.0 | 3.0 | 0.00 | 0.00 | 0.00 | 97 | 1020.3 |
| 20260906114527 | 53 | 94 | 0.0 | 1.0 | 0.00 | 0.00 | 0.00 | 97 | 1020.6 |
| 20260906113011 | 53 | 94 | 0.0 | 2.0 | 0.00 | 0.00 | 0.00 | 97 | 1020.3 |
| 20260906111509 | 54 | 110 | 0.0 | 3.0 | 0.00 | 0.00 | 0.00 | 97 | 1020.1 |
| 20260906110010 | 54 | 113 | 1.0 | 3.0 | 0.00 | 0.00 | 0.00 | 97 | 1019.8 |
| 20260906104515 | 54 | 83 | 0.0 | 3.0 | 0.00 | 0.00 | 0.00 | 97 | 1020.0 |
| 20260906103009 | 53 | 82 | 0.0 | 3.0 | 0.00 | 0.00 | 0.00 | 97 | 1019.8 |
| 20260906101506 | 54 | 110 | 2.0 | 3.0 | 0.00 | 0.00 | 0.00 | 96 | 1019.6 |
| 20260906100004 | 54 | 113 | 3.0 | 6.0 | 0.00 | 0.00 | 0.00 | 97 | 1019.4 |
| 20260906094506 | 54 | 101 | 5.0 | 8.0 | 0.00 | 0.00 | 0.00 | 96 | 1019.4 |
| 20260906093107 | 54 | 125 | 3.0 | 7.0 | 0.00 | 0.00 | 0.00 | 96 | 1019.4 |
| 20260906091557 | 54 | 121 | 0.0 | 0.0 | 0.00 | 0.00 | 0.00 | 96 | 1019.5 |
| 20260906090057 | 54 | 119 | 0.0 | 0.0 | 0.00 | 0.00 | 0.00 | 96 | 1019.9 |
| 20260906084556 | 54 | 119 | 0.0 | 0.0 | 0.00 | 0.00 | 0.00 | 95 | 1020.1 |
| 20260906083055 | 55 | 120 | 0.0 | 2.0 | 0.00 | 0.00 | 0.00 | 94 | 1019.9 |
| 20260906081555 | 55 | 121 | 0.0 | 2.0 | 0.00 | 0.00 | 0.00 | 94 | 1019.8 |
| 20260906080054 | 55 | 127 | 0.0 | 2.0 | 0.00 | 0.00 | 0.00 | 93 | 1020.0 |
| 20260906074553 | 56 | 127 | 0.0 | 0.0 | 0.00 | 0.00 | 0.00 | 94 | 1019.9 |
| 20260906073050 | 56 | 127 | 0.0 | 0.0 | 0.00 | 0.00 | 0.00 | 94 | 1019.8 |
| 20260906071547 | 56 | 127 | 0.0 | 0.0 | 0.00 | 0.00 | 0.00 | 95 | 1020.0 |
| 20260906070047 | 56 | 127 | 0.0 | 1.0 | 0.00 | 0.00 | 0.00 | 93 | 1020.0 |
| 20260906064545 | 57 | 127 | 1.0 | 3.0 | 0.00 | 0.00 | 0.00 | 92 | 1020.1 |
| 20260906063043 | 57 | 127 | 0.0 | 2.0 | 0.00 | 0.00 | 0.00 | 92 | 1020.2 |
| 20260906061542 | 57 | 127 | 2.0 | 4.0 | 0.00 | 0.00 | 0.00 | 91 | 1020.4 |
| 20260906060040 | 58 | 82 | 0.0 | 0.0 | 0.00 | 0.00 | 0.00 | 92 | 1020.3 |
| 20260906054537 | 58 | 82 | 0.0 | 0.0 | 0.00 | 0.00 | 0.00 | 92 | 1020.2 |
| 20260906053035 | 59 | 82 | 0.0 | 1.0 | 0.00 | 0.00 | 0.00 | 90 | 1020.0 |
| 20260906051533 | 59 | 76 | 0.0 | 1.0 | 0.00 | 0.00 | 0.00 | 89 | 1020.0 |
| 20260906050033 | 59 | 109 | 3.0 | 6.0 | 0.00 | 0.00 | 0.00 | 89 | 1019.5 |
| 20260906044535 | 59 | 107 | 2.0 | 4.0 | 0.00 | 0.00 | 0.00 | 87 | 1019.7 |
| 20260906043039 | 60 | 113 | 0.0 | 0.0 | 0.00 | 0.00 | 0.00 | 87 | 1019.7 |
| 20260906041537 | 61 | 113 | 0.0 | 0.0 | 0.00 | 0.00 | 0.00 | 87 | 1019.6 |
| 20260906040035 | 61 | 217 | 0.0 | 0.0 | 0.00 | 0.00 | 0.00 | 86 | 1019.6 |
| 20260906034531 | 62 | 217 | 0.0 | 2.0 | 0.00 | 0.00 | 0.00 | 85 | 1019.7 |
| 20260906033031 | 62 | 143 | 0.0 | 0.0 | 0.00 | 0.00 | 0.00 | 85 | 1019.7 |
| 20260906031544 | 62 | 143 | 0.0 | 0.0 | 0.00 | 0.00 | 0.00 | 83 | 1019.7 |
| 20260906030031 | 63 | 143 | 0.0 | 0.0 | 0.00 | 0.00 | 0.00 | 82 | 1019.5 |
| 20260906024529 | 64 | 138 | 0.0 | 4.0 | 0.00 | 0.00 | 0.00 | 83 | 1019.2 |
| 20260906023031 | 64 | 172 | 1.0 | 4.0 | 0.00 | 0.00 | 0.00 | 81 | 1019.0 |
| 20260906021530 | 65 | 138 | 2.0 | 5.0 | 0.00 | 0.00 | 0.00 | 80 | 1018.6 |
| 20260906020038 | 66 | 157 | 2.0 | 5.0 | 0.00 | 0.00 | 0.00 | 80 | 1018.9 |
| 20260906014534 | 66 | 142 | 1.0 | 5.0 | 0.00 | 0.00 | 0.00 | 78 | 1018.7 |
| 20260906013029 | 67 | 159 | 2.0 | 6.0 | 0.00 | 0.00 | 0.00 | 80 | 1018.5 |
| 20260906011528 | 67 | 157 | 2.0 | 6.0 | 0.00 | 0.00 | 0.00 | 81 | 1018.4 |
| 20260906010027 | 68 | 165 | 3.0 | 8.0 | 0.00 | 0.00 | 0.00 | 81 | 1018.2 |
| 20260906004527 | 69 | 155 | 2.0 | 5.0 | 0.00 | 0.00 | 0.00 | 81 | 1018.1 |
| 20260906003028 | 71 | 159 | 2.0 | 4.0 | 0.00 | 0.00 | 0.00 | 79 | 1018.0 |
| 20260906001531 | 72 | 154 | 1.0 | 4.0 | 0.00 | 0.00 | 0.00 | 78 | 1017.8 |
| 20260906000027 | 73 | 156 | 0.0 | 3.0 | 0.00 | 0.00 | 0.00 | 75 | 1017.8 |
| 20260905234526 | 74 | 217 | 0.0 | 2.0 | 0.00 | 0.00 | 0.00 | 76 | 1017.7 |
| 20260905233031 | 75 | 250 | 0.0 | 2.0 | 0.00 | 0.00 | 0.00 | 75 | 1017.7 |
| 20260905231525 | 75 | 250 | 2.0 | 4.0 | 0.00 | 0.00 | 0.00 | 72 | 1017.8 |
| 20260905230024 | 76 | 249 | 1.0 | 5.0 | 0.00 | 0.00 | 0.00 | 70 | 1018.1 |
| 20260905224523 | 77 | 246 | 0.0 | 3.0 | 0.00 | 0.00 | 0.00 | 70 | 1017.9 |
| 20260905223033 | 77 | 250 | 3.0 | 5.0 | 0.00 | 0.00 | 0.00 | 69 | 1018.2 |
| 20260905221536 | 77 | 233 | 3.0 | 6.0 | 0.00 | 0.00 | 0.00 | 70 | 1018.4 |
| 20260905220019 | 77 | 253 | 2.0 | 5.0 | 0.00 | 0.00 | 0.00 | 68 | 1018.5 |
| 20260905214517 | 78 | 261 | 2.0 | 6.0 | 0.00 | 0.00 | 0.00 | 68 | 1018.5 |
| 20260905213016 | 77 | 281 | 5.0 | 10.0 | 0.00 | 0.00 | 0.00 | 70 | 1018.9 |
| 20260905211534 | 77 | 228 | 2.0 | 7.0 | 0.00 | 0.00 | 0.00 | 68 | 1018.7 |
| 20260905210015 | 78 | 256 | 3.0 | 8.0 | 0.00 | 0.00 | 0.00 | 67 | 1018.7 |
| 20260905204514 | 77 | 209 | 2.0 | 5.0 | 0.00 | 0.00 | 0.00 | 64 | 1018.8 |
| 20260905203014 | 77 | 265 | 3.0 | 6.0 | 0.00 | 0.00 | 0.00 | 66 | 1018.9 |
| 20260905201513 | 77 | 261 | 2.0 | 7.0 | 0.00 | 0.00 | 0.00 | 67 | 1019.0 |
| 20260905200008 | 76 | 246 | 1.0 | 6.0 | 0.00 | 0.00 | 0.00 | 71 | 1019.1 |
| 20260905194508 | 75 | 260 | 3.0 | 7.0 | 0.00 | 0.00 | 0.00 | 68 | 1019.3 |
| 20260905193008 | 76 | 248 | 1.0 | 7.0 | 0.00 | 0.00 | 0.00 | 68 | 1019.4 |
| 20260905191505 | 76 | 307 | 3.0 | 8.0 | 0.00 | 0.00 | 0.00 | 66 | 1019.6 |
| 20260905190005 | 76 | 244 | 1.0 | 3.0 | 0.00 | 0.00 | 0.00 | 67 | 1019.6 |
| 20260905184504 | 76 | 213 | 1.0 | 6.0 | 0.00 | 0.00 | 0.00 | 65 | 1019.7 |